Dewpoint
53 54 54 54 54 54 53 55 54 56 56 57 57 56 56 58 59 56 52 52 52 59 58 53 53 51 51 49 49 47 43 40 41 42 37 34 33 29 31 32 36 38 46 55 47
53 53 54 54 54 53 53 53 54 54 56 56 56 56 57 58 54 52 55 56 56 57 53 51 50 50 49 47 47 44 41 41 44 43 42 43 42 39 28 30 39 47 51 47 43
57 56 55 54 54 54 54 54 53 54 54 56 56 56 58 56 50 49 55 58 57 58 52 51 51 50 47 45 45 45 41 44 43 45 46 43 43 41 32 29 35 45 51 42 41
55 55 55 55 56 55 54 54 52 52 54 55 56 56 58 53 36 43 52 58 58 55 54 52 51 47 45 44 46 42 46 46 47 47 46 44 42 43 38 34 30 47 48 42 41
51 51 51 52 54 54 56 55 54 53 52 54 55 56 54 48 45 49 56 60 55 56 53 52 49 47 43 44 46 45 45 47 47 47 45 47 45 42 45 37 34 47 46 42 42
49 49 48 48 49 51 52 53 54 55 54 54 54 56 50 40 44 49 50 53 54 55 53 52 49 48 43 42 42 42 43 45 46 46 45 44 45 44 44 37 40 45 44 42 43
50 48 48 49 49 50 50 50 51 52 54 55 54 52 48 41 43 47 48 53 54 54 51 52 52 49 45 38 39 40 39 44 46 46 43 43 42 43 42 41 38 40 42 42 43
46 47 47 47 47 46 47 49 49 50 52 54 54 51 41 45 46 43 44 47 51 53 51 52 52 48 45 41 36 39 40 38 44 45 45 43 38 41 41 37 33 39 40 42 43
46 45 45 45 46 47 47 48 48 48 51 54 51 48 40 48 47 45 45 40 44 47 52 48 51 46 45 38 32 36 32 36 42 47 44 42 39 40 40 38 32 36 39 41 42
44 44 44 44 44 44 47 49 49 50 51 51 48 43 41 38 39 45 43 39 36 40 42 41 42 42 42 37 30 30 34 36 37 45 43 45 42 40 39 41 41 34 37 40 42
44 44 44 44 44 45 45 46 38 38 44 39 38 38 36 41 39 41 39 36 36 39 38 38 37 34 36 38 34 32 34 34 37 44 42 42 42 42 41 40 40 33 36 39 41
42 43 44 44 45 44 40 43 42 43 38 39 39 39 36 37 34 34 38 33 33 30 36 36 34 35 36 37 37 35 30 30 33 42 43 41 41 43 42 43 41 32 34 38 40
42 41 42 43 43 41 34 39 38 39 38 36 37 37 37 39 35 33 36 34 32 30 33 31 31 34 35 35 36 36 32 30 31 36 43 41 40 41 42 38 41 30 33 37 39
41 42 42 43 37 35 34 40 38 39 32 27 31 34 35 38 35 36 36 34 32 30 32 31 32 33 34 33 34 32 33 31 31 29 32 40 30 37 39 37 31 25 28 36 38
42 42 43 42 36 36 37 36 38 43 10 18 28 33 37 32 29 34 36 33 29 31 31 30 32 31 32 32 33 32 34 31 33 31 32 30 31 28 37 37 36 34 24 33 37
42 42 44 37 37 36 36 38 40 29 14 23 30 28 33 33 29 33 33 33 31 30 30 28 32 32 30 31 33 36 35 35 36 34 28 29 29 25 31 36 37 34 30 29 37
42 43 41 32 32 37 36 37 28 21 21 21 27 29 29 30 30 29 29 29 26 25 24 27 28 29 32 30 33 35 35 28 25 25 24 27 24 25 23 29 38 37 30 27 36
43 42 36 31 34 36 37 31 19 19 23 27 29 28 26 28 28 27 28 27 28 26 24 22 21 28 28 30 33 35 34 25 18 20 20 24 23 23 25 25 22 34 36 28 35
42 36 32 34 33 36 36 21 19 23 26 26 25 25 26 28 27 26 27 26 28 28 24 22 22 26 27 34 35 37 32 32 26 23 17 20 19 16 20 22 23 20 27 27 34
37 33 32 35 32 36 27 24 21 28 29 25 24 27 26 29 30 26 25 27 27 28 28 25 21 24 25 33 37 37 35 31 31 24 17 17 15 20 19 21 23 22 24 29 35
32 28 30 31 34 29 18 24 28 29 33 29 25 27 28 26 28 31 32 26 28 28 28 27 22 20 24 23 29 30 34 34 32 31 21 14 16 19 18 20 22 23 28 33 35
31 24 29 30 23 23 24 23 24 24 18 24 33 30 28 27 27 26 26 30 28 27 27 26 23 20 21 23 28 29 31 32 27 27 29 20 23 21 21 21 25 26 30 35 36
33 28 31 32 13 17 24 19 17 15 16 18 25 25 25 26 23 27 28 33 27 30 26 27 28 20 20 21 23 23 24 29 26 26 25 24 24 23 25 26 29 33 35 36 39
33 24 23 26 26 16 13 16 16 20 19 19 23 20 15 18 18 19 18 25 23 24 33 32 32 23 18 18 22 21 21 24 25 24 21 23 20 21 25 27 32 35 36 38 41
33 24 24 15 17 21 21 18 18 13 16 18 18 11 18 15 13 15 14 14 20 25 33 34 28 28 23 19 22 22 21 22 25 23 22 20 20 19 22 27 32 35 38 40 41
29 28 29 22 22 21 20 18 16 17 18 16 15 18 15 14 13 14 14 12 18 22 21 29 27 25 24 22 21 20 22 23 22 21 22 18 16 19 27 31 33 36 39 39 40
36 35 31 26 21 20 18 18 19 19 19 19 18 18 16 15 15 17 18 21 23 21 18 24 28 23 22 22 21 18 19 20 22 22 22 20 20 24 29 29 33 36 38 38 38
Lifted_Index
8 8 9 9 9 10 10 10 9 9 8 8 8 8 8 7 6 6 7 6 6 4 4 5 5 4 3 2 2 2 2 2 3 2 2 2 2 2 3 3 3 3 2 1 -0
8 8 9 9 10 10 10 10 10 9 9 8 8 8 7 7 7 6 6 5 5 4 4 5 4 3 2 2 2 2 2 3 3 3 3 3 3 3 3 3 3 3 2 0 -0
8 8 8 9 9 10 10 10 10 9 9 8 8 7 7 7 7 6 5 4 3 3 4 4 4 3 2 2 2 2 2 2 3 3 3 5 5 4 4 4 4 3 2 0 0
9 9 10 10 9 9 9 9 10 10 9 8 8 7 7 7 7 6 5 3 2 2 3 3 3 2 1 1 1 1 2 2 2 2 3 4 5 5 5 5 5 4 2 0 0
11 11 12 11 10 10 9 9 9 9 9 9 8 7 7 7 7 6 5 3 2 2 2 2 2 2 1 1 1 1 1 1 1 2 3 4 5 5 5 6 6 4 2 1 1
13 13 13 13 12 11 10 10 9 9 9 8 8 8 7 7 7 7 5 3 2 2 2 2 2 1 1 1 1 1 1 1 1 1 2 3 4 5 5 6 6 5 3 2 1
13 13 14 13 13 12 12 11 11 10 9 8 8 8 8 8 7 7 5 4 3 2 2 2 2 1 1 1 1 1 1 1 0 0 1 2 3 4 5 6 6 5 4 3 3
14 14 14 14 14 14 13 13 12 11 9 8 8 8 9 8 7 7 6 4 3 3 2 2 2 1 1 1 1 1 1 1 0 -0 0 2 3 4 5 5 6 6 6 5 5
15 15 15 15 15 15 14 13 12 11 10 8 8 8 9 8 7 6 5 5 4 3 3 2 2 2 1 1 1 2 2 1 0 -0 -0 1 3 4 4 5 5 6 6 6 6
16 16 16 16 16 15 14 13 12 10 9 8 9 9 9 8 7 6 5 5 5 4 3 3 3 2 2 1 1 1 2 1 0 -1 -0 1 2 2 3 3 4 5 6 7 7
16 16 16 16 15 14 13 11 11 10 9 9 10 10 9 8 7 6 5 5 5 5 4 4 4 3 2 1 1 1 1 1 0 -0 -1 -0 0 1 2 3 3 4 6 7 7
16 16 16 16 15 13 12 11 10 10 10 10 10 10 9 8 7 6 5 5 5 5 5 5 5 4 2 2 1 1 1 1 1 0 -0 -1 -0 -0 1 2 2 3 5 6 7
16 16 16 16 15 14 13 11 10 9 9 9 10 9 8 7 7 7 6 5 5 5 6 6 5 4 3 2 2 1 1 1 1 1 -0 -0 -0 0 1 1 2 3 4 5 6
16 16 16 16 16 15 14 12 10 8 7 8 9 9 8 7 7 7 6 6 6 6 6 6 5 4 3 3 2 2 1 1 1 1 0 0 0 1 1 1 2 3 4 5 5
15 15 15 16 16 15 14 12 9 7 5 6 7 7 7 6 6 6 6 6 6 6 6 6 5 4 4 3 3 2 1 1 1 1 1 1 1 1 1 1 2 3 4 4 5
15 15 15 15 15 14 13 10 8 5 5 5 6 6 5 5 5 5 6 6 5 5 6 6 5 5 4 3 3 2 1 1 1 0 1 1 2 2 2 2 2 3 4 5 5
15 14 14 15 13 12 11 9 6 5 5 4 4 4 4 4 4 4 5 5 5 5 5 5 5 4 4 3 3 2 1 0 0 0 1 1 2 2 3 3 3 3 3 4 5
15 15 15 14 12 11 9 7 5 5 5 4 4 3 4 4 4 4 4 5 5 5 4 4 4 4 4 3 2 1 1 0 0 0 1 2 2 2 3 3 3 3 3 3 4
16 16 15 13 12 10 9 7 5 5 5 5 4 4 4 4 3 3 4 4 4 4 4 4 3 3 3 2 1 0 0 0 0 1 1 2 2 3 3 3 4 3 3 3 3
16 15 14 13 12 10 8 7 6 6 5 5 5 5 5 4 3 3 4 4 4 4 4 4 3 3 2 1 0 0 0 0 0 0 1 1 2 2 3 3 3 3 4 4 4
15 14 13 12 11 9 7 6 6 6 6 6 5 5 5 4 4 3 3 3 3 3 3 4 3 3 2 1 1 1 0 0 0 0 0 1 2 2 2 2 2 3 4 4 5
12 11 10 9 8 6 5 5 6 6 6 5 5 5 5 5 4 4 3 3 2 2 3 3 3 3 2 1 1 1 0 0 0 1 1 1 2 2 2 2 2 3 4 4 5
8 8 7 6 5 4 3 4 4 5 5 5 4 5 5 6 5 4 4 3 2 2 2 2 3 3 3 2 1 1 1 1 1 1 1 1 2 2 2 3 3 3 4 5 5
5 5 4 3 2 2 2 2 3 3 3 4 4 4 5 5 6 5 5 4 3 3 2 2 3 3 3 2 2 1 1 1 1 1 2 2 2 2 2 3 3 3 4 5 5
3 3 2 2 1 1 1 1 2 2 2 3 3 4 4 5 5 6 6 5 5 4 4 3 2 3 3 3 2 1 1 1 2 2 2 2 3 3 2 2 2 3 3 4 4
1 1 1 1 1 1 1 1 1 1 1 2 2 3 4 4 5 6 6 6 6 6 5 3 2 2 2 2 2 2 2 2 2 2 2 2 3 3 2 2 2 2 3 4 4
0 0 0 0 0 0 0 0 1 1 1 1 2 3 3 4 5 6 6 7 7 6 5 3 2 1 1 2 2 3 3 2 2 2 2 3 3 2 1 1 2 3 3 4 4